| time (UTC) | temp C | wind direction | speed KPH | gust KPH | rain 1hr cm | rain 24hr cm | rain mn cm | humidity % | barometer mb |
| 20260508174056 | 18 | 9 | 1.6 | 12.9 | 0.00 | 0.00 | 0.00 | 26 | 1004.7 |
| 20260508173557 | 18 | 14 | 0.0 | 12.9 | 0.00 | 0.00 | 0.00 | 25 | 1004.6 |
| 20260508173056 | 18 | 117 | 0.0 | 12.9 | 0.00 | 0.00 | 0.00 | 27 | 1004.6 |
| 20260508172557 | 18 | 59 | 0.0 | 12.9 | 0.00 | 0.00 | 0.00 | 26 | 1004.6 |
| 20260508172057 | 18 | 17 | 1.6 | 12.9 | 0.00 | 0.00 | 0.00 | 26 | 1004.7 |
| 20260508171556 | 18 | 9 | 1.6 | 12.9 | 0.00 | 0.00 | 0.00 | 26 | 1004.8 |
| 20260508171056 | 17 | 29 | 0.0 | 12.9 | 0.00 | 0.00 | 0.00 | 27 | 1004.7 |
| 20260508170555 | 18 | 32 | 0.0 | 12.9 | 0.00 | 0.00 | 0.00 | 27 | 1004.8 |
| 20260508170057 | 18 | 41 | 0.0 | 12.9 | 0.00 | 0.00 | 0.00 | 26 | 1004.9 |
| 20260508165557 | 17 | 22 | 0.0 | 12.9 | 0.00 | 0.00 | 0.00 | 26 | 1004.9 |
| 20260508165056 | 17 | 20 | 0.0 | 12.9 | 0.00 | 0.00 | 0.00 | 27 | 1004.9 |
| 20260508164555 | 17 | 70 | 0.0 | 12.9 | 0.00 | 0.00 | 0.00 | 27 | 1004.9 |
| 20260508164055 | 17 | 0 | 0.0 | 12.9 | 0.00 | 0.00 | 0.00 | 28 | 1004.8 |
| 20260508163557 | 17 | 10 | 0.0 | 12.9 | 0.00 | 0.00 | 0.00 | 29 | 1004.9 |
| 20260508163055 | 17 | 9 | 0.0 | 12.9 | 0.00 | 0.00 | 0.00 | 31 | 1004.9 |
| 20260508162555 | 17 | 17 | 0.0 | 12.9 | 0.00 | 0.00 | 0.00 | 30 | 1004.9 |
| 20260508162057 | 16 | 80 | 0.0 | 12.9 | 0.00 | 0.00 | 0.00 | 31 | 1004.9 |
| 20260508161556 | 16 | 24 | 0.0 | 12.9 | 0.00 | 0.00 | 0.00 | 32 | 1004.9 |
| 20260508161056 | 16 | 332 | 0.0 | 12.9 | 0.00 | 0.00 | 0.00 | 32 | 1004.9 |
| 20260508160556 | 16 | 5 | 1.6 | 12.9 | 0.00 | 0.00 | 0.00 | 32 | 1005.0 |
| 20260508160056 | 15 | 5 | 0.0 | 12.9 | 0.00 | 0.00 | 0.00 | 33 | 1005.0 |
| 20260508155556 | 15 | 338 | 1.6 | 12.9 | 0.00 | 0.00 | 0.00 | 34 | 1005.0 |
| 20260508155114 | 15 | 5 | 0.0 | 12.9 | 0.00 | 0.00 | 0.00 | 35 | 1004.9 |
| 20260508154614 | 15 | 9 | 0.0 | 9.7 | 0.00 | 0.00 | 0.00 | 34 | 1005.0 |
| 20260508154115 | 14 | 9 | 0.0 | 9.7 | 0.00 | 0.00 | 0.00 | 35 | 1005.0 |
| 20260508153615 | 14 | 9 | 1.6 | 9.7 | 0.00 | 0.00 | 0.00 | 34 | 1004.9 |
| 20260508153116 | 14 | 119 | 0.0 | 9.7 | 0.00 | 0.00 | 0.00 | 35 | 1004.9 |
| 20260508152614 | 14 | 123 | 0.0 | 9.7 | 0.00 | 0.00 | 0.00 | 35 | 1004.9 |
| 20260508152114 | 13 | 123 | 0.0 | 9.7 | 0.00 | 0.00 | 0.00 | 36 | 1005.0 |
| 20260508151614 | 13 | 40 | 0.0 | 9.7 | 0.00 | 0.00 | 0.00 | 36 | 1005.0 |
| 20260508151114 | 13 | 48 | 1.6 | 9.7 | 0.00 | 0.00 | 0.00 | 36 | 1005.0 |
| 20260508150614 | 13 | 335 | 0.0 | 9.7 | 0.00 | 0.00 | 0.00 | 35 | 1005.0 |
| 20260508150114 | 13 | 342 | 1.6 | 9.7 | 0.00 | 0.00 | 0.00 | 36 | 1005.0 |
| 20260508145614 | 13 | 15 | 0.0 | 6.4 | 0.00 | 0.00 | 0.00 | 35 | 1004.9 |
| 20260508145115 | 13 | 15 | 0.0 | 6.4 | 0.00 | 0.00 | 0.00 | 36 | 1004.9 |
| 20260508144615 | 12 | 61 | 0.0 | 6.4 | 0.00 | 0.00 | 0.00 | 36 | 1004.9 |
| 20260508144115 | 12 | 66 | 0.0 | 6.4 | 0.00 | 0.00 | 0.00 | 36 | 1005.0 |
| 20260508143615 | 12 | 77 | 0.0 | 6.4 | 0.00 | 0.00 | 0.00 | 36 | 1005.0 |
| 20260508143114 | 12 | 77 | 0.0 | 6.4 | 0.00 | 0.00 | 0.00 | 36 | 1004.9 |
| 20260508142614 | 12 | 94 | 0.0 | 6.4 | 0.00 | 0.00 | 0.00 | 37 | 1004.9 |
| 20260508142114 | 12 | 94 | 0.0 | 6.4 | 0.00 | 0.00 | 0.00 | 38 | 1004.9 |
| 20260508141614 | 11 | 94 | 0.0 | 6.4 | 0.00 | 0.00 | 0.00 | 39 | 1005.0 |
| 20260508141114 | 11 | 94 | 0.0 | 6.4 | 0.00 | 0.00 | 0.00 | 39 | 1005.0 |
| 20260508140614 | 11 | 94 | 0.0 | 6.4 | 0.00 | 0.00 | 0.00 | 39 | 1005.1 |
| 20260508140113 | 11 | 94 | 0.0 | 6.4 | 0.00 | 0.00 | 0.00 | 40 | 1005.2 |
| 20260508135615 | 11 | 142 | 0.0 | 6.4 | 0.00 | 0.00 | 0.00 | 41 | 1005.2 |
| 20260508135115 | 11 | 142 | 0.0 | 6.4 | 0.00 | 0.00 | 0.00 | 40 | 1005.2 |
| 20260508134615 | 11 | 142 | 0.0 | 6.4 | 0.00 | 0.00 | 0.00 | 40 | 1005.1 |
| 20260508134114 | 11 | 142 | 0.0 | 6.4 | 0.00 | 0.00 | 0.00 | 40 | 1005.1 |
| 20260508133614 | 11 | 205 | 0.0 | 4.8 | 0.00 | 0.00 | 0.00 | 40 | 1005.0 |
| 20260508133114 | 11 | 205 | 0.0 | 4.8 | 0.00 | 0.00 | 0.00 | 41 | 1005.1 |
| 20260508132614 | 11 | 205 | 0.0 | 4.8 | 0.00 | 0.00 | 0.00 | 40 | 1005.0 |
| 20260508132114 | 10 | 205 | 0.0 | 4.8 | 0.00 | 0.00 | 0.00 | 40 | 1005.0 |
| 20260508131614 | 10 | 205 | 0.0 | 4.8 | 0.00 | 0.00 | 0.00 | 41 | 1005.0 |
| 20260508131115 | 10 | 205 | 0.0 | 4.8 | 0.00 | 0.00 | 0.00 | 41 | 1005.0 |
| 20260508130613 | 10 | 205 | 0.0 | 4.8 | 0.00 | 0.00 | 0.00 | 41 | 1005.0 |
| 20260508130114 | 10 | 205 | 0.0 | 4.8 | 0.00 | 0.00 | 0.00 | 42 | 1005.0 |
| 20260508125614 | 10 | 205 | 0.0 | 4.8 | 0.00 | 0.00 | 0.00 | 41 | 1005.0 |
| 20260508125114 | 10 | 205 | 0.0 | 4.8 | 0.00 | 0.00 | 0.00 | 42 | 1005.0 |
| 20260508124614 | 10 | 205 | 0.0 | 4.8 | 0.00 | 0.00 | 0.00 | 42 | 1005.0 |
| 20260508124115 | 10 | 205 | 0.0 | 4.8 | 0.00 | 0.00 | 0.00 | 43 | 1005.0 |
| 20260508123615 | 10 | 205 | 0.0 | 4.8 | 0.00 | 0.00 | 0.00 | 43 | 1005.0 |
| 20260508123114 | 10 | 205 | 0.0 | 4.8 | 0.00 | 0.00 | 0.00 | 43 | 1005.0 |
| 20260508122615 | 10 | 205 | 0.0 | 4.8 | 0.00 | 0.00 | 0.00 | 43 | 1005.0 |
| 20260508122113 | 10 | 207 | 0.0 | 4.8 | 0.00 | 0.00 | 0.00 | 44 | 1005.0 |
| 20260508121614 | 10 | 207 | 0.0 | 4.8 | 0.00 | 0.00 | 0.00 | 44 | 1004.9 |
| 20260508121115 | 10 | 207 | 0.0 | 3.2 | 0.00 | 0.00 | 0.00 | 44 | 1004.9 |
| 20260508120613 | 10 | 207 | 0.0 | 3.2 | 0.00 | 0.00 | 0.00 | 43 | 1004.8 |
| 20260508120113 | 10 | 207 | 0.0 | 3.2 | 0.00 | 0.00 | 0.00 | 43 | 1004.8 |
| 20260508115614 | 10 | 207 | 0.0 | 3.2 | 0.00 | 0.00 | 0.00 | 44 | 1004.8 |
| 20260508115114 | 10 | 207 | 0.0 | 3.2 | 0.00 | 0.00 | 0.00 | 44 | 1004.9 |
| 20260508114615 | 10 | 207 | 0.0 | 3.2 | 0.00 | 0.00 | 0.00 | 45 | 1004.8 |
| 20260508114115 | 10 | 208 | 0.0 | 3.2 | 0.00 | 0.00 | 0.00 | 46 | 1004.8 |
| 20260508113615 | 10 | 208 | 0.0 | 3.2 | 0.00 | 0.00 | 0.00 | 45 | 1004.8 |
| 20260508113113 | 10 | 81 | 0.0 | 1.6 | 0.00 | 0.00 | 0.00 | 46 | 1004.8 |
| 20260508112613 | 10 | 81 | 0.0 | 1.6 | 0.00 | 0.00 | 0.00 | 46 | 1004.7 |
| 20260508112114 | 10 | 81 | 0.0 | 1.6 | 0.00 | 0.00 | 0.00 | 46 | 1004.7 |
| 20260508111613 | 9 | 81 | 0.0 | 1.6 | 0.00 | 0.00 | 0.00 | 46 | 1004.6 |
| 20260508111114 | 9 | 81 | 0.0 | 1.6 | 0.00 | 0.00 | 0.00 | 47 | 1004.6 |
| 20260508110615 | 9 | 81 | 0.0 | 1.6 | 0.00 | 0.00 | 0.00 | 48 | 1004.6 |
| 20260508105933 | 9 | 81 | 0.0 | 1.6 | 0.00 | 0.00 | 0.00 | 49 | 1004.6 |
| 20260508105433 | 9 | 81 | 0.0 | 1.6 | 0.00 | 0.00 | 0.00 | 49 | 1004.6 |
| 20260508105028 | 9 | 81 | 0.0 | 1.6 | 0.00 | 0.00 | 0.00 | 49 | 1004.7 |
| 20260508104528 | 9 | 81 | 0.0 | 1.6 | 0.00 | 0.00 | 0.00 | 50 | 1004.6 |
| 20260508104029 | 9 | 81 | 0.0 | 1.6 | 0.00 | 0.00 | 0.00 | 50 | 1004.6 |
| 20260508103527 | 9 | 81 | 0.0 | 1.6 | 0.00 | 0.00 | 0.00 | 50 | 1004.5 |
| 20260508103027 | 8 | 81 | 0.0 | 1.6 | 0.00 | 0.00 | 0.00 | 51 | 1004.5 |
| 20260508102527 | 8 | 71 | 0.0 | 1.6 | 0.00 | 0.00 | 0.00 | 53 | 1004.5 |
| 20260508102028 | 8 | 71 | 0.0 | 1.6 | 0.00 | 0.00 | 0.00 | 54 | 1004.5 |
| 20260508101527 | 8 | 71 | 0.0 | 1.6 | 0.00 | 0.00 | 0.00 | 54 | 1004.5 |
| 20260508101027 | 8 | 71 | 0.0 | 1.6 | 0.00 | 0.00 | 0.00 | 54 | 1004.4 |
| 20260508100527 | 8 | 71 | 0.0 | 1.6 | 0.00 | 0.00 | 0.00 | 55 | 1004.3 |
| 20260508100028 | 9 | 71 | 0.0 | 1.6 | 0.00 | 0.00 | 0.00 | 55 | 1004.3 |
| 20260508095528 | 9 | 71 | 0.0 | 1.6 | 0.00 | 0.00 | 0.00 | 55 | 1004.3 |
| 20260508095028 | 9 | 71 | 0.0 | 1.6 | 0.00 | 0.00 | 0.00 | 54 | 1004.4 |
| 20260508094528 | 9 | 71 | 0.0 | 1.6 | 0.00 | 0.00 | 0.00 | 53 | 1004.4 |
| 20260508094028 | 10 | 71 | 0.0 | 1.6 | 0.00 | 0.00 | 0.00 | 52 | 1004.4 |
| 20260508093527 | 10 | 71 | 0.0 | 1.6 | 0.00 | 0.00 | 0.00 | 52 | 1004.4 |
| 20260508092651 | 10 | 71 | 0.0 | 1.6 | 0.00 | 0.00 | 0.00 | 52 | 1004.4 |
| 20260508092150 | 10 | 71 | 0.0 | 1.6 | 0.00 | 0.00 | 0.00 | 52 | 1004.4 |
| 20260508091651 | 10 | 71 | 0.0 | 1.6 | 0.00 | 0.00 | 0.00 | 53 | 1004.5 |
| 20260508091151 | 10 | 71 | 0.0 | 1.6 | 0.00 | 0.00 | 0.00 | 53 | 1004.5 |
| 20260508090652 | 9 | 71 | 0.0 | 1.6 | 0.00 | 0.00 | 0.00 | 54 | 1004.6 |
| 20260508090152 | 9 | 71 | 0.0 | 1.6 | 0.00 | 0.00 | 0.00 | 54 | 1004.6 |
| 20260508085652 | 9 | 71 | 0.0 | 1.6 | 0.00 | 0.00 | 0.00 | 54 | 1004.6 |
| 20260508085150 | 10 | 71 | 0.0 | 1.6 | 0.00 | 0.00 | 0.00 | 54 | 1004.7 |
| 20260508084651 | 10 | 71 | 0.0 | 1.6 | 0.00 | 0.00 | 0.00 | 54 | 1004.7 |
| 20260508084151 | 10 | 71 | 0.0 | 1.6 | 0.00 | 0.00 | 0.00 | 54 | 1004.7 |
| 20260508083652 | 10 | 71 | 0.0 | 1.6 | 0.00 | 0.00 | 0.00 | 55 | 1004.7 |
| 20260508083151 | 10 | 71 | 0.0 | 1.6 | 0.00 | 0.00 | 0.00 | 54 | 1004.8 |
| 20260508082651 | 10 | 71 | 0.0 | 1.6 | 0.00 | 0.00 | 0.00 | 55 | 1004.7 |
| 20260508082151 | 10 | 71 | 0.0 | 1.6 | 0.00 | 0.00 | 0.00 | 55 | 1004.7 |
| 20260508081651 | 10 | 71 | 0.0 | 1.6 | 0.00 | 0.00 | 0.00 | 54 | 1004.7 |
| 20260508081152 | 10 | 71 | 0.0 | 1.6 | 0.00 | 0.00 | 0.00 | 54 | 1004.7 |
| 20260508080652 | 10 | 71 | 0.0 | 1.6 | 0.00 | 0.00 | 0.00 | 54 | 1004.7 |
| 20260508080152 | 10 | 71 | 0.0 | 1.6 | 0.00 | 0.00 | 0.00 | 54 | 1004.8 |
| 20260508075651 | 10 | 71 | 0.0 | 1.6 | 0.00 | 0.00 | 0.00 | 54 | 1004.7 |
| 20260508075151 | 10 | 71 | 0.0 | 1.6 | 0.00 | 0.00 | 0.00 | 54 | 1004.7 |
| 20260508074651 | 10 | 71 | 0.0 | 1.6 | 0.00 | 0.00 | 0.00 | 54 | 1004.7 |
| 20260508074150 | 10 | 71 | 0.0 | 1.6 | 0.00 | 0.00 | 0.00 | 54 | 1004.7 |
| 20260508073651 | 10 | 71 | 0.0 | 1.6 | 0.00 | 0.00 | 0.00 | 54 | 1004.7 |
| 20260508073150 | 11 | 71 | 0.0 | 1.6 | 0.00 | 0.00 | 0.00 | 54 | 1004.7 |
| 20260508072651 | 11 | 71 | 0.0 | 1.6 | 0.00 | 0.00 | 0.00 | 54 | 1004.7 |
| 20260508072151 | 11 | 71 | 0.0 | 1.6 | 0.00 | 0.00 | 0.00 | 54 | 1004.8 |
| 20260508071651 | 11 | 71 | 0.0 | 0.0 | 0.00 | 0.00 | 0.00 | 54 | 1004.8 |
| 20260508071151 | 11 | 71 | 0.0 | 0.0 | 0.00 | 0.00 | 0.00 | 53 | 1004.7 |
| 20260508070651 | 11 | 71 | 0.0 | 0.0 | 0.00 | 0.00 | 0.00 | 53 | 1004.7 |
| 20260508070152 | 11 | 71 | 0.0 | 0.0 | 0.00 | 0.00 | 0.00 | 52 | 1004.8 |
| 20260508065652 | 11 | 71 | 0.0 | 0.0 | 0.00 | 0.00 | 0.00 | 52 | 1004.8 |
| 20260508065150 | 11 | 71 | 0.0 | 0.0 | 0.00 | 0.00 | 0.00 | 51 | 1004.8 |
| 20260508064650 | 11 | 71 | 0.0 | 0.0 | 0.00 | 0.00 | 0.00 | 51 | 1004.8 |
| 20260508064151 | 11 | 71 | 0.0 | 0.0 | 0.00 | 0.00 | 0.00 | 51 | 1004.8 |
| 20260508063651 | 11 | 71 | 0.0 | 0.0 | 0.00 | 0.00 | 0.00 | 50 | 1004.8 |
| 20260508063151 | 11 | 71 | 0.0 | 0.0 | 0.00 | 0.00 | 0.00 | 50 | 1004.8 |
| 20260508062650 | 11 | 71 | 0.0 | 0.0 | 0.00 | 0.00 | 0.00 | 50 | 1004.9 |
| 20260508062151 | 11 | 71 | 0.0 | 0.0 | 0.00 | 0.00 | 0.00 | 50 | 1004.9 |
| 20260508061651 | 11 | 71 | 0.0 | 0.0 | 0.00 | 0.00 | 0.00 | 50 | 1005.0 |
| 20260508061151 | 12 | 71 | 0.0 | 0.0 | 0.00 | 0.00 | 0.00 | 50 | 1005.0 |
| 20260508060651 | 12 | 71 | 0.0 | 0.0 | 0.00 | 0.00 | 0.00 | 49 | 1005.0 |
| 20260508060151 | 12 | 71 | 0.0 | 0.0 | 0.00 | 0.00 | 0.00 | 49 | 1004.9 |
| 20260508055651 | 12 | 71 | 0.0 | 12.9 | 0.00 | 0.00 | 0.00 | 49 | 1005.0 |
| 20260508055152 | 12 | 71 | 0.0 | 12.9 | 0.00 | 0.00 | 0.00 | 49 | 1005.0 |
| 20260508054650 | 12 | 71 | 0.0 | 12.9 | 0.00 | 0.00 | 0.00 | 48 | 1005.1 |
| 20260508054151 | 12 | 71 | 0.0 | 12.9 | 0.00 | 0.00 | 0.00 | 49 | 1005.0 |
| 20260508053651 | 12 | 71 | 0.0 | 12.9 | 0.00 | 0.00 | 0.00 | 49 | 1005.0 |
| 20260508053151 | 12 | 71 | 0.0 | 12.9 | 0.00 | 0.00 | 0.00 | 49 | 1005.0 |
| 20260508052652 | 12 | 71 | 0.0 | 12.9 | 0.00 | 0.00 | 0.00 | 48 | 1005.0 |
| 20260508052151 | 12 | 71 | 0.0 | 12.9 | 0.00 | 0.00 | 0.00 | 48 | 1005.1 |
| 20260508051651 | 12 | 71 | 0.0 | 12.9 | 0.00 | 0.00 | 0.00 | 48 | 1005.1 |
| 20260508051150 | 12 | 71 | 0.0 | 12.9 | 0.00 | 0.00 | 0.00 | 48 | 1005.1 |
| 20260508050651 | 12 | 71 | 0.0 | 12.9 | 0.00 | 0.00 | 0.00 | 48 | 1005.1 |
| 20260508050151 | 12 | 71 | 0.0 | 12.9 | 0.00 | 0.00 | 0.00 | 48 | 1005.2 |
| 20260508045651 | 12 | 71 | 0.0 | 12.9 | 0.00 | 0.00 | 0.00 | 48 | 1005.2 |
| 20260508045152 | 12 | 71 | 0.0 | 12.9 | 0.00 | 0.00 | 0.00 | 47 | 1005.2 |
| 20260508044650 | 12 | 71 | 0.0 | 12.9 | 0.00 | 0.00 | 0.00 | 47 | 1005.3 |
| 20260508044036 | 12 | 71 | 0.0 | 12.9 | 0.00 | 0.00 | 0.00 | 47 | 1005.2 |
| 20260508043538 | 12 | 71 | 0.0 | 12.9 | 0.00 | 0.00 | 0.00 | 47 | 1005.3 |
| 20260508043036 | 12 | 71 | 0.0 | 12.9 | 0.00 | 0.00 | 0.00 | 46 | 1005.3 |
| 20260508042536 | 12 | 71 | 0.0 | 12.9 | 0.00 | 0.00 | 0.00 | 45 | 1005.2 |
| 20260508042036 | 13 | 71 | 0.0 | 12.9 | 0.00 | 0.00 | 0.00 | 44 | 1005.2 |
| 20260508041537 | 13 | 71 | 0.0 | 12.9 | 0.00 | 0.00 | 0.00 | 44 | 1005.1 |
| 20260508041036 | 13 | 71 | 0.0 | 12.9 | 0.00 | 0.00 | 0.00 | 43 | 1005.1 |
| 20260508040537 | 13 | 71 | 0.0 | 12.9 | 0.00 | 0.00 | 0.00 | 42 | 1005.0 |
| 20260508040037 | 13 | 71 | 0.0 | 12.9 | 0.00 | 0.00 | 0.00 | 42 | 1005.0 |
| 20260508035536 | 13 | 71 | 0.0 | 12.9 | 0.00 | 0.00 | 0.00 | 42 | 1005.0 |
| 20260508035036 | 14 | 71 | 0.0 | 12.9 | 0.00 | 0.00 | 0.00 | 41 | 1005.0 |
| 20260508034537 | 14 | 71 | 0.0 | 12.9 | 0.00 | 0.00 | 0.00 | 40 | 1005.0 |
| 20260508034037 | 14 | 71 | 0.0 | 12.9 | 0.00 | 0.00 | 0.00 | 39 | 1004.9 |
| 20260508033536 | 15 | 71 | 0.0 | 12.9 | 0.00 | 0.00 | 0.00 | 39 | 1004.9 |
| 20260508033036 | 15 | 71 | 0.0 | 12.9 | 0.00 | 0.00 | 0.00 | 38 | 1004.9 |
| 20260508032536 | 15 | 71 | 0.0 | 12.9 | 0.00 | 0.00 | 0.00 | 38 | 1004.9 |
| 20260508032037 | 15 | 71 | 0.0 | 12.9 | 0.00 | 0.00 | 0.00 | 38 | 1004.9 |
| 20260508031537 | 15 | 71 | 0.0 | 12.9 | 0.00 | 0.00 | 0.00 | 38 | 1004.8 |
| 20260508031036 | 15 | 71 | 0.0 | 12.9 | 0.00 | 0.00 | 0.00 | 37 | 1004.7 |
| 20260508030536 | 16 | 71 | 0.0 | 12.9 | 0.00 | 0.00 | 0.00 | 36 | 1004.7 |
| 20260508030036 | 16 | 71 | 0.0 | 12.9 | 0.00 | 0.00 | 0.00 | 35 | 1004.7 |
| 20260508025537 | 16 | 71 | 0.0 | 12.9 | 0.00 | 0.00 | 0.00 | 34 | 1004.7 |
| 20260508025037 | 16 | 73 | 0.0 | 12.9 | 0.00 | 0.00 | 0.00 | 34 | 1004.6 |
| 20260508024536 | 16 | 73 | 0.0 | 12.9 | 0.00 | 0.00 | 0.00 | 34 | 1004.6 |
| 20260508024037 | 16 | 73 | 0.0 | 12.9 | 0.00 | 0.00 | 0.00 | 35 | 1004.6 |
| 20260508023535 | 16 | 73 | 0.0 | 12.9 | 0.00 | 0.00 | 0.00 | 33 | 1004.6 |
| 20260508023036 | 17 | 73 | 0.0 | 12.9 | 0.00 | 0.00 | 0.00 | 35 | 1004.6 |
| 20260508022536 | 17 | 73 | 0.0 | 12.9 | 0.00 | 0.00 | 0.00 | 32 | 1004.5 |
| 20260508022036 | 17 | 188 | 0.0 | 12.9 | 0.00 | 0.00 | 0.00 | 33 | 1004.6 |
| 20260508021536 | 17 | 185 | 0.0 | 12.9 | 0.00 | 0.00 | 0.00 | 36 | 1004.6 |
| 20260508021037 | 17 | 185 | 0.0 | 12.9 | 0.00 | 0.00 | 0.00 | 35 | 1004.5 |
| 20260508020536 | 17 | 185 | 0.0 | 12.9 | 0.00 | 0.00 | 0.00 | 34 | 1004.4 |
| 20260508020037 | 17 | 185 | 0.0 | 12.9 | 0.00 | 0.00 | 0.00 | 34 | 1004.3 |
| 20260508015536 | 17 | 185 | 0.0 | 12.9 | 0.00 | 0.00 | 0.00 | 34 | 1004.3 |
| 20260508015036 | 17 | 185 | 0.0 | 12.9 | 0.00 | 0.00 | 0.00 | 34 | 1004.2 |
| 20260508014536 | 17 | 185 | 0.0 | 12.9 | 0.00 | 0.00 | 0.00 | 33 | 1004.2 |
| 20260508014037 | 17 | 185 | 0.0 | 12.9 | 0.00 | 0.00 | 0.00 | 33 | 1004.2 |
| 20260508013535 | 17 | 185 | 0.0 | 12.9 | 0.00 | 0.00 | 0.00 | 33 | 1004.3 |
| 20260508013036 | 17 | 185 | 0.0 | 12.9 | 0.00 | 0.00 | 0.00 | 33 | 1004.2 |
| 20260508012536 | 17 | 185 | 0.0 | 12.9 | 0.00 | 0.00 | 0.00 | 33 | 1004.3 |
| 20260508012036 | 18 | 192 | 1.6 | 12.9 | 0.00 | 0.00 | 0.00 | 33 | 1004.2 |
| 20260508011536 | 18 | 186 | 0.0 | 12.9 | 0.00 | 0.00 | 0.00 | 33 | 1004.2 |
| 20260508011037 | 18 | 229 | 0.0 | 12.9 | 0.00 | 0.00 | 0.00 | 33 | 1004.2 |
| 20260508010537 | 18 | 246 | 0.0 | 12.9 | 0.00 | 0.00 | 0.00 | 33 | 1004.2 |
| 20260508010036 | 18 | 249 | 1.6 | 12.9 | 0.00 | 0.00 | 0.00 | 31 | 1004.2 |
| 20260508005535 | 18 | 5 | 0.0 | 12.9 | 0.00 | 0.00 | 0.00 | 30 | 1004.2 |
| 20260508005036 | 19 | 5 | 0.0 | 12.9 | 0.00 | 0.00 | 0.00 | 29 | 1004.2 |
| 20260508004536 | 19 | 5 | 0.0 | 12.9 | 0.00 | 0.00 | 0.00 | 30 | 1004.2 |
| 20260508004036 | 19 | 5 | 0.0 | 12.9 | 0.00 | 0.00 | 0.00 | 29 | 1004.1 |
| 20260508003536 | 19 | 5 | 0.0 | 12.9 | 0.00 | 0.00 | 0.00 | 28 | 1004.0 |
| 20260508003036 | 19 | 5 | 0.0 | 12.9 | 0.00 | 0.00 | 0.00 | 28 | 1004.1 |
| 20260508002536 | 19 | 5 | 0.0 | 12.9 | 0.00 | 0.00 | 0.00 | 29 | 1004.1 |
| 20260508002035 | 19 | 5 | 0.0 | 12.9 | 0.00 | 0.00 | 0.00 | 28 | 1004.0 |
| 20260508001535 | 19 | 5 | 0.0 | 12.9 | 0.00 | 0.00 | 0.00 | 28 | 1004.0 |
| 20260508001035 | 20 | 13 | 0.0 | 12.9 | 0.00 | 0.00 | 0.00 | 27 | 1003.9 |
| 20260508000535 | 20 | 49 | 1.6 | 12.9 | 0.00 | 0.00 | 0.00 | 28 | 1004.0 |
| 20260508000035 | 20 | 90 | 0.0 | 12.9 | 0.00 | 0.00 | 0.00 | 28 | 1003.8 |
| 20260507235535 | 20 | 86 | 0.0 | 12.9 | 0.00 | 0.00 | 0.00 | 28 | 1003.8 |
| 20260507235037 | 20 | 84 | 0.0 | 12.9 | 0.00 | 0.00 | 0.00 | 27 | 1003.8 |
| 20260507234537 | 20 | 15 | 0.0 | 12.9 | 0.00 | 0.00 | 0.00 | 28 | 1003.7 |
| 20260507234036 | 20 | 15 | 0.0 | 12.9 | 0.00 | 0.00 | 0.00 | 28 | 1003.8 |
| 20260507233536 | 20 | 19 | 0.0 | 12.9 | 0.00 | 0.00 | 0.00 | 28 | 1003.8 |
| 20260507233036 | 19 | 19 | 0.0 | 12.9 | 0.00 | 0.00 | 0.00 | 27 | 1003.7 |
| 20260507232536 | 19 | 351 | 1.6 | 12.9 | 0.00 | 0.00 | 0.00 | 27 | 1003.8 |
| 20260507232036 | 19 | 343 | 0.0 | 12.9 | 0.00 | 0.00 | 0.00 | 28 | 1003.9 |
| 20260507231536 | 19 | 9 | 1.6 | 12.9 | 0.00 | 0.00 | 0.00 | 28 | 1003.8 |
| 20260507231035 | 19 | 0 | 0.0 | 12.9 | 0.00 | 0.00 | 0.00 | 27 | 1003.7 |
| 20260507230536 | 19 | 32 | 0.0 | 12.9 | 0.00 | 0.00 | 0.00 | 27 | 1003.8 |
| 20260507230036 | 19 | 14 | 0.0 | 12.9 | 0.00 | 0.00 | 0.00 | 26 | 1003.8 |
| 20260507225536 | 19 | 5 | 0.0 | 12.9 | 0.00 | 0.00 | 0.00 | 26 | 1003.8 |
| 20260507225035 | 20 | 1 | 1.6 | 12.9 | 0.00 | 0.00 | 0.00 | 26 | 1003.8 |
| 20260507224535 | 20 | 5 | 1.6 | 12.9 | 0.00 | 0.00 | 0.00 | 26 | 1003.7 |
| 20260507224035 | 20 | 21 | 3.2 | 12.9 | 0.00 | 0.00 | 0.00 | 26 | 1003.6 |
| 20260507223537 | 20 | 10 | 1.6 | 12.9 | 0.00 | 0.00 | 0.00 | 25 | 1003.6 |
| 20260507223036 | 20 | 19 | 1.6 | 12.9 | 0.00 | 0.00 | 0.00 | 25 | 1003.7 |
| 20260507222536 | 20 | 8 | 0.0 | 12.9 | 0.00 | 0.00 | 0.00 | 25 | 1003.7 |
| 20260507222035 | 20 | 5 | 1.6 | 12.9 | 0.00 | 0.00 | 0.00 | 25 | 1003.7 |
| 20260507221535 | 20 | 5 | 1.6 | 12.9 | 0.00 | 0.00 | 0.00 | 25 | 1003.8 |
| 20260507221036 | 20 | 5 | 1.6 | 12.9 | 0.00 | 0.00 | 0.00 | 25 | 1003.8 |
| 20260507220535 | 20 | 336 | 1.6 | 12.9 | 0.00 | 0.00 | 0.00 | 26 | 1003.8 |
| 20260507220035 | 20 | 89 | 0.0 | 12.9 | 0.00 | 0.00 | 0.00 | 26 | 1003.8 |
| 20260507215535 | 20 | 13 | 0.0 | 12.9 | 0.00 | 0.00 | 0.00 | 26 | 1003.8 |
| 20260507215036 | 20 | 14 | 1.6 | 12.9 | 0.00 | 0.00 | 0.00 | 26 | 1003.8 |
| 20260507214536 | 20 | 28 | 3.2 | 12.9 | 0.00 | 0.00 | 0.00 | 27 | 1003.8 |
| 20260507214036 | 20 | 0 | 1.6 | 12.9 | 0.00 | 0.00 | 0.00 | 26 | 1003.9 |
| 20260507213535 | 20 | 10 | 1.6 | 12.9 | 0.00 | 0.00 | 0.00 | 26 | 1004.0 |
| 20260507213035 | 20 | 5 | 1.6 | 12.9 | 0.00 | 0.00 | 0.00 | 27 | 1004.1 |
| 20260507212535 | 20 | 28 | 1.6 | 12.9 | 0.00 | 0.00 | 0.00 | 26 | 1004.2 |
| 20260507212036 | 20 | 15 | 3.2 | 12.9 | 0.00 | 0.00 | 0.00 | 27 | 1004.2 |
| 20260507211535 | 20 | 355 | 1.6 | 12.9 | 0.00 | 0.00 | 0.00 | 27 | 1004.3 |
| 20260507211035 | 20 | 28 | 0.0 | 12.9 | 0.00 | 0.00 | 0.00 | 28 | 1004.3 |
| 20260507210536 | 20 | 33 | 1.6 | 12.9 | 0.00 | 0.00 | 0.00 | 27 | 1004.4 |
| 20260507210035 | 20 | 8 | 3.2 | 12.9 | 0.00 | 0.00 | 0.00 | 28 | 1004.4 |
| 20260507205535 | 19 | 27 | 0.0 | 12.9 | 0.00 | 0.00 | 0.00 | 28 | 1004.4 |
| 20260507205035 | 19 | 35 | 0.0 | 12.9 | 0.00 | 0.00 | 0.00 | 28 | 1004.5 |
| 20260507204535 | 19 | 77 | 0.0 | 12.9 | 0.00 | 0.00 | 0.00 | 28 | 1004.6 |
| 20260507204036 | 19 | 19 | 1.6 | 12.9 | 0.00 | 0.00 | 0.00 | 28 | 1004.6 |
| 20260507203535 | 19 | 202 | 0.0 | 12.9 | 0.00 | 0.00 | 0.00 | 29 | 1004.6 |
| 20260507203036 | 19 | 205 | 0.0 | 12.9 | 0.00 | 0.00 | 0.00 | 29 | 1004.6 |
| 20260507202536 | 19 | 54 | 0.0 | 12.9 | 0.00 | 0.00 | 0.00 | 29 | 1004.7 |
| 20260507202035 | 19 | 207 | 0.0 | 12.9 | 0.00 | 0.00 | 0.00 | 31 | 1004.7 |
| 20260507201534 | 19 | 5 | 0.0 | 12.9 | 0.00 | 0.00 | 0.00 | 30 | 1004.7 |
| 20260507201036 | 19 | 0 | 1.6 | 12.9 | 0.00 | 0.00 | 0.00 | 30 | 1004.7 |
| 20260507200536 | 19 | 5 | 1.6 | 12.9 | 0.00 | 0.00 | 0.00 | 29 | 1004.7 |
| 20260507200035 | 19 | 36 | 0.0 | 12.9 | 0.00 | 0.00 | 0.00 | 30 | 1004.7 |
| 20260507195536 | 18 | 12 | 1.6 | 12.9 | 0.00 | 0.00 | 0.00 | 29 | 1004.7 |
| 20260507195036 | 18 | 14 | 0.0 | 12.9 | 0.00 | 0.00 | 0.00 | 31 | 1004.7 |
| 20260507194536 | 18 | 8 | 3.2 | 12.9 | 0.00 | 0.00 | 0.00 | 29 | 1004.8 |
| 20260507194035 | 18 | 5 | 0.0 | 12.9 | 0.00 | 0.00 | 0.00 | 31 | 1004.7 |
| 20260507193536 | 18 | 29 | 0.0 | 12.9 | 0.00 | 0.00 | 0.00 | 32 | 1004.7 |
| 20260507193034 | 18 | 36 | 0.0 | 12.9 | 0.00 | 0.00 | 0.00 | 33 | 1004.7 |
| 20260507192536 | 18 | 35 | 0.0 | 12.9 | 0.00 | 0.00 | 0.00 | 31 | 1004.8 |
| 20260507192036 | 18 | 31 | 0.0 | 12.9 | 0.00 | 0.00 | 0.00 | 31 | 1004.7 |
| 20260507191535 | 18 | 70 | 0.0 | 12.9 | 0.00 | 0.00 | 0.00 | 30 | 1004.7 |
| 20260507191035 | 18 | 94 | 0.0 | 12.9 | 0.00 | 0.00 | 0.00 | 30 | 1004.7 |
| 20260507190536 | 18 | 53 | 0.0 | 12.9 | 0.00 | 0.00 | 0.00 | 30 | 1004.8 |
| 20260507190034 | 18 | 301 | 0.0 | 12.9 | 0.00 | 0.00 | 0.00 | 30 | 1004.8 |
| 20260507185535 | 18 | 11 | 0.0 | 12.9 | 0.00 | 0.00 | 0.00 | 30 | 1004.9 |
| 20260507185035 | 18 | 10 | 0.0 | 12.9 | 0.00 | 0.00 | 0.00 | 30 | 1004.9 |
| 20260507184535 | 18 | 355 | 0.0 | 12.9 | 0.00 | 0.00 | 0.00 | 30 | 1004.9 |
| 20260507184034 | 18 | 23 | 1.6 | 12.9 | 0.00 | 0.00 | 0.00 | 29 | 1004.8 |
| 20260507183534 | 18 | 0 | 4.8 | 12.9 | 0.00 | 0.00 | 0.00 | 29 | 1004.9 |
| 20260507183035 | 18 | 17 | 0.0 | 12.9 | 0.00 | 0.00 | 0.00 | 30 | 1004.9 |
| 20260507182535 | 18 | 5 | 0.0 | 12.9 | 0.00 | 0.00 | 0.00 | 30 | 1004.9 |
| 20260507182035 | 18 | 9 | 0.0 | 12.9 | 0.00 | 0.00 | 0.00 | 30 | 1004.9 |
| 20260507181535 | 18 | 18 | 1.6 | 12.9 | 0.00 | 0.00 | 0.00 | 31 | 1004.9 |
| 20260507181035 | 18 | 20 | 3.2 | 12.9 | 0.00 | 0.00 | 0.00 | 30 | 1004.9 |
| 20260507180535 | 18 | 340 | 0.0 | 12.9 | 0.00 | 0.00 | 0.00 | 30 | 1005.0 |
| 20260507180034 | 18 | 4 | 1.6 | 11.3 | 0.00 | 0.00 | 0.00 | 31 | 1004.9 |
| 20260507175534 | 18 | 33 | 1.6 | 11.3 | 0.00 | 0.00 | 0.00 | 31 | 1005.0 |
| 20260507175036 | 18 | 46 | 1.6 | 11.3 | 0.00 | 0.00 | 0.00 | 30 | 1004.8 |
| 20260507174536 | 18 | 13 | 0.0 | 11.3 | 0.00 | 0.00 | 0.00 | 32 | 1004.8 |